#timestamp,LO_Frequency,Hit,StdDev 
1505912415.4,286047005.8,Y
1505912435.2,286047000.6,P
1505912455.0,286047002.4,N
1505912455.9,286047002.4,N
1505912475.8,286046999.7,N
1505912495.6,286047002.7,N
1505912515.4,286046999.2,N
1505912535.3,286047000.9,N
1505912555.1,286046999.4,N
1505912556.0,286046999.4,N
1505912575.8,286047000.2,N
1505912595.7,286047002.4,N
1505912615.5,286047002.6,N
1505912635.3,286046999.0,N
1505912655.2,286046995.5,N
1505912675.9,286046997.1,N
1505912695.7,286046996.6,N
1505912715.5,286046999.0,N
1505912735.4,286046994.9,N
1505912755.2,286046996.6,N
1505912775.0,286046997.5,N
1505912775.9,286046997.5,N
1505912795.8,286046995.7,N
1505912815.6,286047000.7,N
1505912835.4,286047000.4,N
1505912855.3,286046999.7,N
1505912875.1,286047003.2,N
1505912876.0,286047003.2,N
1505912895.8,286047002.7,N
1505912915.7,286047000.6,N
1505912935.5,286047004.3,N
1505912955.3,286047003.8,N
1505912975.2,286047004.2,N
1505912995.9,286047000.0,N
1505913015.7,286047002.6,N
1505913035.6,286047001.5,N
1505913055.4,286047002.2,N
1505913075.2,286046999.8,N
1505913095.0,286047001.9,N
1505913096.0,286047001.9,N
1505913115.8,286047000.5,N
1505913135.6,286047002.2,N
1505913155.4,286047000.1,N
1505913175.3,286047002.2,N
1505913195.1,286046999.9,N
1505913215.8,286047002.5,N
1505913235.7,286047002.9,N
1505913255.5,286046999.7,N
1505913275.3,286047001.6,N
1505913295.2,286047001.8,N
1505913315.9,286046999.1,N
1505913335.7,286046995.8,N
1505913355.6,286046996.2,N
1505913375.4,286046995.0,N
1505913395.2,286046994.1,N
1505913415.1,286046990.7,Y
1505913416.0,286046990.7,P
1505913435.8,286046993.2,N
1505913455.6,286046995.6,N
1505913475.5,286046996.2,N
1505913495.3,286046995.6,N
1505913515.1,286047000.8,N
1505913535.8,286046996.5,N
1505913555.7,286046995.4,N
1505913575.5,286046996.0,N
1505913595.3,286047001.2,N
1505913615.2,286046998.3,N
1505913635.9,286046999.4,N
1505913655.7,286046997.1,N
1505913675.6,286046998.4,N
1505913695.4,286046997.7,N
1505913715.2,286046998.0,N
1505913735.1,286046998.0,N
1505913736.0,286046998.0,N
1505913755.8,286046998.8,N
1505913775.6,286047002.2,N
1505913795.5,286047000.6,N
1505913815.3,286047005.6,N
1505913835.1,286047001.0,N
1505913855.9,286047000.7,N
1505913875.7,286046998.6,N
1505913895.5,286047000.0,N
1505913915.3,286046999.5,N
1505913935.2,286046996.7,N
1505913955.0,286046996.7,N
1505913955.9,286046996.7,N
1505913975.7,286046996.4,N
1505913995.6,286046995.6,N
1505914015.4,286046995.5,N
1505914035.2,286046996.1,N
1505914055.1,286046998.0,N
1505914056.0,286046998.0,N
1505914075.8,286046993.7,N
1505914095.6,286046995.7,N
1505914115.5,286046994.5,N
1505914135.3,286046995.2,N
1505914155.1,286046996.9,N
1505914175.9,286046998.7,N
1505914195.7,286047000.2,N
1505914215.5,286047000.0,N
1505914235.4,286046998.6,N
1505914255.2,286046999.5,N
1505914275.0,286047000.9,N
1505914275.9,286047000.9,N
1505914295.8,286047003.7,N
1505914315.6,286047003.6,N
1505914335.4,286047009.0,Y
1505914355.3,286047009.2,P
1505914375.1,286047007.5,N
1505914376.0,286047007.5,N
1505914395.8,286047002.7,N
1505914415.7,286046998.1,N
1505914435.5,286047002.0,N
1505914455.3,286047001.4,N
1505914475.1,286046999.8,N
1505914495.9,286047001.9,N
1505914515.7,286047000.7,N
1505914535.5,286046995.6,N
1505914555.4,286046997.6,N
1505914575.2,286046998.5,N
1505914595.0,286046998.6,N
1505914595.9,286046998.6,N
1505914615.8,286046998.5,N
1505914635.6,286046994.9,N
1505914655.4,286046996.8,N
1505914675.3,286046999.0,N
1505914695.1,286046999.1,N
1505914696.0,286046999.1,N
1505914715.8,286047000.7,N
1505914735.7,286047000.9,N
1505914755.5,286046999.3,N
1505914775.3,286046999.2,N
1505914795.2,286047001.1,N
1505914815.9,286046995.0,N
1505914835.7,286046999.1,N
1505914855.5,286046993.4,N
1505914875.4,286046998.9,N
1505914895.2,286046995.3,N
1505914915.0,286046995.7,N
1505914915.9,286046995.7,N
1505914935.8,286046996.3,N
1505914955.6,286046991.9,Y
1505914975.4,286046995.8,P
1505914995.3,286046994.0,P
1505915015.1,286046995.7,N
1505915035.9,286046995.3,Y
1505915055.7,286046997.5,P
1505915075.5,286046995.4,P
1505915095.3,286046995.0,P
1505915115.2,286046993.3,Y
1505915135.1,286047000.7,P
1505915136.0,286047000.7,N
1505915155.8,286047005.4,N
1505915175.6,286047003.6,N
1505915195.5,286047004.4,N
1505915215.3,286047002.8,N
1505915235.1,286047001.0,N
1505915255.9,286047000.3,N
1505915275.7,286047004.1,N
1505915295.5,286047003.8,N
1505915315.3,286047004.5,N
1505915335.2,286047004.6,N
1505915355.0,286047003.2,N
1505915355.9,286047003.2,N
1505915375.7,286047004.0,N
1505915395.6,286047002.6,N
1505915415.4,286046999.3,N
1505915435.2,286047001.5,N
1505915455.1,286046999.2,N
1505915456.0,286046999.2,N
1505915475.8,286046996.6,N
1505915495.6,286046995.2,N
1505915515.9,286046997.9,N
1505915535.7,286046999.0,N
1505915555.6,286047001.1,N
1505915575.4,286047000.4,N
1505915595.2,286047000.3,N
1505915615.0,286046999.1,N
1505915616.0,286046999.1,N
1505915635.8,286047003.8,N
1505915655.6,286047002.4,N
1505915675.4,286047002.1,N
1505915695.3,286046999.9,N
1505915715.1,286047001.6,N
1505915735.8,286047000.2,N
1505915755.7,286046996.5,N
1505915775.5,286047000.1,N
1505915795.3,286047002.6,N
1505915815.2,286047002.1,N
1505915835.9,286047000.9,N
1505915855.7,286047001.2,N
1505915875.6,286046998.1,N
1505915895.4,286047000.3,N
1505915915.2,286047001.0,N
1505915935.1,286047001.5,N
1505915936.0,286047001.5,N
1505915955.8,286046999.9,N
1505915975.6,286047000.5,N
1505915995.5,286047000.3,N
